This is the latest recevied weather packets stored in our database for station/object N6RDS. If no packets are shown the sender has not sent any weather packets the latest 10 day(s).
| Time | Temp. | Humidity | Pressure | Rain* | Wind** | Luminosity | Snow |
|---|---|---|---|---|---|---|---|
| 1777215634 | 3.89° C | 90% | 1015.5 hPa | 1.78 mm | - | 190 W/m² | - |
| 1777215329 | 3.33° C | 93% | 1015.7 hPa | 1.78 mm | - | 174 W/m² | - |
| 1777215026 | 3.33° C | 93% | 1015.4 hPa | 0 mm | - | 80 W/m² | - |
| 1777214726 | 2.78° C | 93% | 1015.4 hPa | 0 mm | - | 68 W/m² | - |
| 1777214425 | 2.78° C | 93% | 1015.5 hPa | 1.27 mm | - | 56 W/m² | - |
| 1777214120 | 2.78° C | 93% | 1015.4 hPa | 1.27 mm | - | 41 W/m² | - |
| 1777213815 | 2.22° C | 93% | 1015.5 hPa | 0 mm | - | 32 W/m² | - |
| 1777213509 | 2.22° C | 93% | 1015.7 hPa | 1.78 mm | - | 26 W/m² | - |
| 1777213208 | 2.22° C | 93% | 1015.4 hPa | 3.05 mm | - | 21 W/m² | - |
| 1777212904 | 2.22° C | 92% | 1015.5 hPa | 1.27 mm | - | 28 W/m² | - |
| 1777212602 | 2.22° C | 93% | 1015.4 hPa | 0 mm | - | 16 W/m² | - |
| 1777212300 | 2.22° C | 93% | 1015.3 hPa | 0 mm | - | 13 W/m² | - |
| 1777211995 | 2.22° C | 93% | 1015.1 hPa | 1.78 mm | - | 12 W/m² | - |
| 1777211685 | 2.22° C | 93% | 1015.3 hPa | 1.78 mm | - | 11 W/m² | - |
| 1777211384 | 2.22° C | 93% | 1015.3 hPa | 1.78 mm | - | 21 W/m² | - |
| 1777211080 | 2.22° C | 93% | 1015.2 hPa | 1.78 mm | - | 12 W/m² | - |
| 1777210778 | 2.22° C | 93% | 1015.2 hPa | 0 mm | - | 11 W/m² | - |
| 1777210476 | 2.22° C | 94% | 1015.2 hPa | 1.27 mm | - | 24 W/m² | - |
| 1777210173 | 2.22° C | 94% | 1015.1 hPa | 1.27 mm | - | 12 W/m² | - |
| 1777209870 | 2.22° C | 94% | 1015.1 hPa | 0 mm | - | 7 W/m² | - |
| 1777209565 | 2.22° C | 94% | 1014.9 hPa | 0 mm | - | 8 W/m² | - |
| 1777209261 | 2.22° C | 94% | 1014.9 hPa | 1.78 mm | - | 12 W/m² | - |
| 1777208958 | 2.22° C | 94% | 1014.9 hPa | 1.78 mm | - | 16 W/m² | - |
| 1777208654 | 2.22° C | 94% | 1014.6 hPa | 0 mm | - | 8 W/m² | - |
| 1777208350 | 2.22° C | 94% | 1014.7 hPa | 0 mm | - | 4 W/m² | - |
* Rain latest hour (hover to see other rain measurements)
** Current wind speed in m/s (hover to see current wind gust speed)